Home > Weather > Winston-Salem > Past weeks

Flag for USA Past Weather in Winston-Salem, North Carolina, USA — Yesterday and Last 2 Weeks

Now
69 °F

Clear.


Feels Like: 69 °F
Forecast: 66 / 86 °F
Wind: No wind

Location: Smith Reynolds Airport

Current Time: Aug 24, 2016 at 3:01:52 AM

Latest Report: Aug 24, 2016 at 1:54 AM


Visibility: 10 mi

Pressure: 30.27 "Hg

Humidity: 76%

Dew Point: 61 °F

Location of Winston-SalemLocation

Past Weather in Winston-Salem — Graph

°F

Winston-Salem Temperature Yesterday

Maximum temperature yesterday: 84 °F (at 4:54 PM)
Minimum temperature yesterday: 66 °F (at 3:54 AM)
Average temperature yesterday: 74 °F

High & Low Weather Summary for the Past Weeks

 TemperatureHumidityPressure
High92 °F (Aug 14, 3:54 PM)97% (Aug 9, 9:54 AM)30.32 "Hg (Aug 9, 9:54 AM)
Low65 °F (Aug 22, 3:54 AM)41% (Aug 22, 2:54 PM)29.81 "Hg (Aug 21, 3:54 AM)
Average79 °F72%30.09 "Hg
* Reported Aug 9 1:03 AM — Aug 24 1:54 AM, Winston-Salem, Weather by CustomWeather, © 2016

Note: Actual official high and low records may vary slightly from our data, if they occured in-between our weather recording intervals... More about our weather records

Advertising

Winston-Salem Weather History for the Previous 24 Hours

Scroll right to see more
 ConditionsComfort  
Time TempWeatherWind HumidityBarometerVisibility
1:54 AM
Wed, Aug 24
69 °FClear.No wind76%30.27 "Hg10 mi
12:54 AM71 °FClear.No wind73%30.27 "Hg10 mi
11:54 PM
Tue, Aug 23
71 °FClear.No wind73%30.27 "Hg10 mi
10:54 PM71 °FClear.3 mph76%30.27 "Hg10 mi
9:54 PM72 °FClear.No wind76%30.27 "Hg10 mi
8:54 PM73 °FSunny.No wind76%30.26 "Hg10 mi
7:54 PM77 °FSunny.3 mph66%30.25 "Hg10 mi
6:54 PM80 °FSunny.No wind56%30.24 "Hg10 mi
5:54 PM82 °FSunny.No wind48%30.24 "Hg10 mi
4:54 PM84 °FPassing clouds.5 mph41%30.24 "Hg10 mi
3:54 PM82 °FPartly sunny.No wind46%30.26 "Hg10 mi
2:54 PM82 °FScattered clouds.5 mph48%30.28 "Hg10 mi
1:54 PM81 °FBroken clouds.No wind49%30.30 "Hg10 mi
12:54 PM81 °FSunny.5 mph53%30.31 "Hg10 mi
11:54 AM80 °FSunny.5 mph52%30.31 "Hg10 mi
10:54 AM77 °FSunny.No wind58%30.32 "Hg10 mi
9:54 AM74 °FSunny.3 mph64%30.31 "Hg10 mi
8:54 AM71 °FPassing clouds.6 mph71%30.29 "Hg10 mi
7:54 AM66 °FPassing clouds.6 mph81%30.28 "Hg10 mi
6:54 AM66 °FPassing clouds.7 mph81%30.27 "Hg10 mi
5:54 AM66 °FOvercast.5 mph84%30.26 "Hg10 mi
4:54 AM66 °FPassing clouds.3 mph78%30.24 "Hg10 mi
3:54 AM66 °FClear.3 mph81%30.23 "Hg10 mi
Weather by CustomWeather, © 2016

See weather overviewHow to use our weather pages